Regional Weather Roundup
Issued by NWS

Home | Current Version | Previous Version | Graphics & Text | Print | Product List | Glossary On
Versions: 1 2 3 4 5 6 7 8 9 10 11 12 13 14 15 16 17 18 19 20 21 22 23 24 25 26 27 28 29
000
ASUS45 KGTF 021110
RWRMT
MONTANA HOURLY WEATHER ROUNDUP
NATIONAL WEATHER SERVICE GREAT FALLS MT
500 AM MDT SAT MAY 02 2015

NOTE: "FAIR" INDICATES FEW OR NO CLOUDS BELOW 12000 FEET WITH NO
SIGNIFICANT WEATHER AND/OR OBSTRUCTIONS TO VISIBILITY.

MTZ001>007-043-021200-
WEST OF THE DIVIDE

CITY           SKY/WX    TMP DP  RH WIND       PRES   REMARKS
KALISPELL      MOSUNNY   43  34  70 SW7       29.74S
MISSOULA       MOCLDY    45  29  53 E6        29.84R
BUTTE          CLOUDY    39  28  64 VRB5      29.90F
DEER LODGE       N/A     48  25  40 S5        29.89F
EUREKA           N/A     46  34  61 W7        29.77R
LIBBY            N/A     50  30  46 N5        29.75R
$$

MTZ008-052>055-021200-
SOUTHWEST MONTANA

CITY           SKY/WX    TMP DP  RH WIND       PRES   REMARKS
BOZEMAN        CLOUDY    43  31  62 SE8       29.87S
DILLON         CLOUDY    47  23  38 SW10      29.89F
$$

MTZ009-010-012-014-046-048-049-054-021200-
EAST SLOPES AND CENTRAL MONTANA

CITY           SKY/WX    TMP DP  RH WIND       PRES   REMARKS
CUT BANK       CLEAR     37  30  75 N14       29.76R WCI  28
GREAT FALLS    CLOUDY    50  23  34 SW12      29.75S
MALMSTROM AFB  CLOUDY    48  26  42 S5        29.75S
HELENA         MOCLDY    49  23  36 CALM      29.82S
$$

MTZ011-013-016-021-045-047-050-051-021200-
NORTH CENTRAL MONTANA

CITY           SKY/WX    TMP DP  RH WIND       PRES   REMARKS
HAVRE          MOCLDY    40  30  67 SW8       29.71S
LEWISTOWN      CLOUDY    52  25  35 SW15      29.77F
CHINOOK          N/A     45  32  61 CALM      29.72R
FORT BENTON      N/A     52  25  35 SW5       29.74S
$$

MTZ017>020-022>042-056>058-061-062-021200-
EASTERN PLAINS

CITY           SKY/WX    TMP DP  RH WIND       PRES   REMARKS
BAKER          PTCLDY    42  35  76 E6        29.73F
BILLINGS       PTCLDY    49  33  54 SW14      29.80S
GLASGOW        PTCLDY    50  33  52 CALM      29.67F
JORDAN           N/A     37  33  85 W5        29.70S
LIVINGSTON     PTCLDY    40  27  59 S3        29.85F
MILES CITY     PTCLDY    50  32  50 S5        29.71S
SIDNEY         PTCLDY    39  32  75 S8        29.69F
WOLF POINT     PTCLDY    43  34  70 CALM      29.67F
BIG TIMBER       N/A     45  25  45 SW9       29.85S
FORSYTH          N/A     48  36  61 W6        29.73S
PLENTYWOOD       N/A     52  32  46 E5        29.66F
POPLAR           N/A     48  34  57 S3        29.67F
$$

REGIONAL REPORTS...DAKOTAS

CITY           SKY/WX    TMP DP  RH WIND       PRES   REMARKS
WILLISTON      CLOUDY    44  33  65 SW6       29.67F
MINOT          PTCLDY    55  32  41 SW5       29.68F
DICKINSON      PTCLDY    45  34  65 S12       29.71F
BEACH          FAIR      43  36  75 S12       29.72F
CROSBY         FAIR      48  34  57 SW9       29.66S
WATFORD CITY   FAIR      43  32  65 SW7       29.67S
BISMARCK       MOCLDY    45  33  63 E5        29.77F
GRAND FORKS    PTCLDY    46  35  65 S8        29.75F
FARGO          PTCLDY    52  34  50 S8        29.81F
BUFFALO SD       N/A     47  34  60 S6        29.71F
RAPID CITY     CLEAR     45  39  79 SE5       29.81F
$$

REGIONAL REPORTS...WYOMING/IDAHO/WASHINGTON

CITY           SKY/WX    TMP DP  RH WIND       PRES   REMARKS
GILLETTE       CLEAR     57  34  41 S17       29.82F
SHERIDAN       CLOUDY    43  31  62 S6        29.80F
BUFFALO WY     CLOUDY    54  23  30 VRB6      29.85F
CODY           MOCLDY    48  19  32 S5        29.88F
YELLOWSTONE LA   N/A     26  21  81 CALM      30.05F
IDAHO FALLS    PTCLDY    44  30  57 W5        29.94S
SALMON         PTCLDY    41  28  60 CALM      29.89S
BOISE          CLEAR     51  24  34 CALM      29.86R
SPOKANE        PTCLDY    43  27  53 SW3       29.86R
$$

REGIONAL REPORTS...ALBERTA

CITY           SKY/WX    TMP DP  RH WIND       PRES   REMARKS
EDMONTON       PTCLDY    41  27  56 W10       29.77S
CALGARY        MOCLDY    41  28  60 N3        29.79F
LETHBRIDGE     CLOUDY    43  36  75 NW9       29.80S
MEDICINE HAT   CLOUDY    45  43  93 W6        29.77F
$$

REGIONAL REPORTS...SASKATCHEWAN

CITY           SKY/WX    TMP DP  RH WIND       PRES   REMARKS
SWIFT CURRENT  PTCLDY    41  36  81 W10       29.70R
REGINA         PTCLDY    39  34  81 W6        29.65S
SASKATOON      PTCLDY    39  37  93 NW10      29.68R
$$



USA.gov is the U.S. government's official web portal to all federal, state and local government web resources and services.